Location: Oxford
(26.2333°S, 49.4000°W)
Time: 05:38:04
(UTC+00:00)

Daily predictions for brighter satellites

Satellite Brightness Start Highest point End
(mag) Time Altitude Azimuth Time Altitude Azimuth Time Altitude Azimuth
CZ-4C R/B 4.0 00:01:15 10° NW 00:08:19 40° WSW 00:08:19 40° WSW
Cosmos 2278 Rocket 3.7 07:07:31 32° ENE 07:07:31 32° ENE 07:10:54 10° NE
SL-16 R/B 3.8 07:23:20 25° SSE 07:23:20 25° SSE 07:25:38 10° SSE
NOSS 3-4 (A) 3.8 07:26:09 57° NE 07:26:09 57° NE 07:30:52 10° NNE
NOSS 3-4 (C) 3.8 07:26:12 59° NE 07:26:12 59° NE 07:30:59 10° NNE
CZ-4B R/B 4.4 07:38:52 10° SE 07:41:17 17° E 07:43:39 10° NE
CZ-3 R/B 3.3 07:33:03 32° WNW 07:46:35 78° NNE 07:54:15 10° E
Centaur AC-64 4.1 07:45:11 38° NW 07:47:04 46° N 07:50:37 10° ENE
ATLAS 2AS CENTAUR R/B 2.7 07:46:23 64° SW 07:47:30 77° WNW 07:55:02 10° NNE
Okean O Rocket 4.1 07:56:17 10° ENE 07:59:38 21° ESE 08:02:59 10° SSE
PSLV R/B 3.9 08:02:34 10° NNE 08:06:16 66° ESE 08:06:20 66° ESE
CZ-3A R/B 3.1 08:04:29 29° NNW 08:06:37 45° NNE 08:19:24 10° E
H-2A R/B 4.1 08:08:07 10° NE 08:11:43 39° ESE 08:15:18 10° S
SAR-Lupe-4 4.1 08:13:12 10° SSE 08:16:46 58° ENE 08:20:17 10° N
NOAA 6 4.5 08:11:53 10° NNE 08:16:57 62° ESE 08:22:07 10° S
Cosmos 1607 3.9 08:11:58 10° NNW 08:18:22 83° WSW 08:24:42 10° SSE
Cosmos 1812 Rocket 4.4 08:20:12 32° NW 08:20:12 32° NW 08:22:51 10° NNW
MOS 1-B 4.3 08:15:39 10° NNE 08:21:26 86° ESE 08:27:17 10° SSW
Palapa 6 Rocket 4.4 08:20:25 21° NNW 08:22:13 28° NNE 08:25:40 10° ENE
SL-08 ROCKET BODY 4.3 08:17:48 10° NNW 08:23:35 58° W 08:29:23 10° S
Cosmos 1943 4.0 08:20:10 10° N 08:25:37 53° ENE 08:31:09 10° SSE
Cosmos 1386 Rocket 4.4 08:19:48 10° NNW 08:25:47 65° W 08:31:59 10° S
BREEZE-M DEB (TANK) 2.8 08:26:39 57° W 08:27:07 69° SW 08:33:06 10° SE
Meteor 2-10 Rocket 3.9 08:30:57 34° W 08:31:11 35° W 08:35:42 10° NNW
Cosmos 1371 Rocket 4.2 08:26:24 10° S 08:31:37 71° ESE 08:36:46 10° NNE
SAR-Lupe-1 3.9 08:28:26 10° S 08:32:05 87° WSW 08:35:41 10° NNW
Cosmos 1455 4.0 08:37:40 17° NW 08:37:40 17° NW 08:38:49 10° NNW
PAYLOAD B 4.2 08:30:30 10° N 08:36:02 81° WNW 08:41:41 10° SSW
CZ-4B DEB 4.2 08:30:59 10° N 08:36:29 66° WNW 08:42:04 10° SSW
Envisat 3.6 08:33:51 10° NNE 08:38:51 60° ESE 08:43:53 10° S
Cosmos 1745 Rocket 4.2 08:33:38 10° NNW 08:39:28 44° W 08:45:20 10° S
Cosmos 2278 Rocket 3.6 08:49:28 17° WNW 08:49:28 17° WNW 08:52:48 10° NW
Cosmos 2056 Rocket 3.4 08:46:15 10° SSW 08:51:30 84° WNW 08:56:45 10° NNE
CZ-4B R/B 3.2 08:50:24 10° N 08:56:03 76° WNW 09:01:46 10° SSW
ARGOS Delta rocket 3.7 08:54:42 10° NNE 08:59:12 88° E 09:03:39 10° S
Radarsat Rocket 4.0 08:52:54 10° N 08:59:20 69° WNW 09:05:18 10° SSW
H-2A R/B 3.8 08:58:19 10° NW 09:00:54 17° W 09:01:18 17° W
SL-16 R/B 4.0 09:05:17 11° SW 09:05:17 11° SW 09:05:58 10° SW
ADEOS Rocket 3.2 08:59:31 10° S 09:05:48 68° WSW 09:12:46 10° NNW
H-2A R/B 1.9 09:02:24 10° WNW 09:07:23 38° N 09:09:20 10° E
Sakura Rocket 4.2 09:03:12 15° W 09:08:17 73° S 09:16:37 10° E
Cosmos 724 4.5 09:02:55 10° NNW 09:09:07 90° W 09:15:21 10° SSE
CZ-4B R/B 3.1 09:11:06 10° SSW 09:13:20 16° WSW 09:15:32 10° WNW
ISS -0.8 09:13:45 10° SSE 09:14:41 11° SE 09:15:37 10° SE
Cosmos 1825 4.4 09:11:44 10° NNE 09:15:05 30° E 09:18:27 10° SSE
Cosmos 2369 Rocket 3.4 09:09:56 10° S 09:15:22 45° ESE 09:20:44 10° NE
APEX 4.4 09:10:32 10° SW 09:15:58 40° WNW 09:20:20 10° N
Cosmos 2058 2.9 09:14:32 10° N 09:18:45 84° W 09:23:02 10° S
COSMO-SKYMED 1 2.6 09:15:02 10° SSE 09:19:26 89° W 09:23:47 10° NNW
Cosmos 1709 Rocket 4.4 09:14:34 10° NNW 09:20:08 37° W 09:25:49 10° SSW
Cosmos 371 Rocket 3.3 09:16:07 10° SSW 09:21:03 78° WNW 09:25:55 10° N
Cosmos 1408 2.8 09:20:04 10° N 09:23:44 75° E 09:27:26 10° S
COSMOS 2455 3.2 09:18:27 10° SW 09:24:10 46° WNW 09:29:51 10° N
SMAP 3.4 09:20:12 10° N 09:24:39 45° W 09:29:09 10° SSW
Fermi 4.4 09:21:32 10° W 09:25:28 47° NNW 09:29:25 10° ENE
AQUARIUS 4.4 09:21:14 10° N 09:25:35 50° W 09:30:00 10° SSW
Cosmos 494 Rocket 4.0 09:20:55 10° NNW 09:26:08 74° WSW 09:31:27 10° S
Feng Yun 1-1 Rocket 4.5 09:21:37 10° NNE 09:27:17 84° ESE 09:33:10 10° SSW
CZ-4C R/B 1.7 09:23:30 10° SSW 09:28:24 67° WNW 09:32:51 10° NNE
IRS-1C Rocket 4.4 09:25:09 10° NNE 09:30:23 77° ESE 09:35:42 10° S
Cosmos 1869 3.2 09:26:34 10° S 09:30:30 82° W 09:34:26 10° N
Cosmos 2297 4.5 09:25:56 10° SW 09:31:00 33° WNW 09:36:03 10° NNW
